Location: Twillingate Astronomical Observatory
(49.6173°N, 54.7580°W)
Time: 21:23:34
(UTC-02:-30)

Amateur Radio Satellites - All Passes

Search period start: 28 September 2016 20:53
Search period end: 29 September 2016 20:53
Location: Twillingate Astronomical Observatory, 49.6173°N, 54.7580°W

Satellite Date Start Highest point End Downlink Frequencies (MHz)
Time Altitude Azimuth
AAUSAT CUBESAT 2 28 Sep 20:55:23 20:59:33 73° 259° (WSW) 21:03:45 437.432
HUMSAT D 28 Sep 20:57:15 20:59:16 13° 58° (ENE) 21:01:17 437.325/437.525
STRAND 1 28 Sep 20:58:24 21:03:34 78° 288° (WNW) 21:08:44 437.568
RS-15 28 Sep 21:08:57 21:20:41 82° 125° (SE) 21:33:00 29.354- 29.394
GONETS M04 28 Sep 21:20:52 21:29:07 46° 273° (W) 21:37:17
AO-85 28 Sep 21:21:32 21:26:22 41° 121° (ESE) 21:30:53 145.980
CUBEBUG 2 28 Sep 21:34:29 21:38:11 30° 265° (W) 21:41:53 437.445
FUNcube-1 28 Sep 21:35:03 21:39:10 71° 257° (WSW) 21:43:19 145.935
COMPASS 1 28 Sep 21:41:49 21:45:02 21° 268° (W) 21:48:17 437.405
DANDE 28 Sep 21:42:14 21:47:36 39° 296° (WNW) 21:54:26 436.750
CUSAT 1 28 Sep 21:47:16 21:52:41 23° 307° (NW) 21:58:39 437.405
UWE-3 28 Sep 21:50:50 21:54:30 30° 264° (W) 21:58:12 435.000/436.395/437.385
ESTCUBE 1 28 Sep 21:51:46 21:53:03 11° 53° (NE) 21:54:20 437.505/2401.250
DELFI C3 28 Sep 22:08:22 22:12:22 70° 258° (WSW) 22:16:25 145.870
Oscar 11 28 Sep 22:14:32 22:18:17 29° 265° (W) 22:22:04 145.826/435.025
PRISM 28 Sep 22:16:03 22:20:14 78° 105° (ESE) 22:24:20 437.425
ISS 28 Sep 22:16:29 22:19:44 84° 160° (SSE) 22:23:02 145.825
TIGRISAT 28 Sep 22:18:30 22:20:45 14° 88° (E) 22:23:01 435.000
ZACube-1 28 Sep 22:18:34 22:22:00 25° 266° (W) 22:25:27 437.345
SO-50 28 Sep 22:28:01 22:32:04 28° 33° (NNE) 22:36:00 436.795
Cosmos 2499 28 Sep 22:29:55 22:34:46 19° 283° (WNW) 22:39:48 435.465 / 435.565
HUMSAT D 28 Sep 22:30:13 22:34:18 81° 257° (WSW) 22:38:27 437.325/437.525
HO-68 28 Sep 22:32:05 22:33:32 11° 280° (W) 22:34:57 435.675
AISAT 28 Sep 22:38:29 22:41:13 16° 58° (ENE) 22:43:56 437.250
STRAND 1 28 Sep 22:39:09 22:41:57 15° 307° (NW) 22:44:45 437.568
UNISAT 6 28 Sep 22:58:07 23:02:08 34° 96° (E) 23:06:13 437.425
AO-85 28 Sep 23:02:05 23:06:53 41° 319° (NW) 23:11:20 145.980
AUBIESAT-1 28 Sep 23:02:57 23:05:49 20° 58° (ENE) 23:08:32 437.475
DX 1 28 Sep 23:10:12 23:13:21 20° 60° (ENE) 23:16:31 434.975-435.025
VELOX 1 28 Sep 23:20:24 23:24:25 34° 66° (ENE) 23:28:27 145.980
CUBEBUG 1 28 Sep 23:21:59 23:26:10 43° 69° (ENE) 23:30:21 437.445
50 SAT 28 Sep 23:22:06 23:25:15 28° 67° (ENE) 23:28:27 437.505
RS-15 28 Sep 23:22:57 23:34:27 49° 334° (NNW) 23:46:23 29.354- 29.394
ESTCUBE 1 28 Sep 23:24:30 23:29:00 68° 72° (ENE) 23:33:33 437.505/2401.250
DANDE 28 Sep 23:31:33 23:33:03 11° 323° (NW) 23:34:36 436.750
ANTELSAT 28 Sep 23:33:16 23:37:41 73° 104° (ESE) 23:42:10 437.575/2403.000
JAS-2 28 Sep 23:35:36 23:41:13 21° 84° (E) 23:46:41 435.910
M-CUBED/EXP-1 PRIME 28 Sep 23:39:58 23:43:54 55° 66° (ENE) 23:47:33 437.505
PRISM 28 Sep 23:52:45 23:54:58 14° 303° (WNW) 23:57:10 437.425
ISS 28 Sep 23:53:08 23:56:22 58° 0° (N) 23:59:38 145.825
TIGRISAT 28 Sep 23:53:34 23:57:58 76° 286° (WNW) 00:02:26 435.000
DUCHIFAT 1 28 Sep 23:58:11 00:01:07 18° 91° (E) 00:04:03 145.980
SPROUT 28 Sep 23:58:28 00:02:31 43° 69° (ENE) 00:06:33 437.525
QB50P1 29 Sep 00:01:06 00:04:25 22° 93° (E) 00:07:43 145.935-145.965
SO-50 29 Sep 00:08:21 00:12:56 65° 234° (SW) 00:17:22 436.795
AISAT 29 Sep 00:12:42 00:17:09 76° 255° (WSW) 00:21:38 437.250
UKube-1 29 Sep 00:14:19 00:18:33 58° 71° (ENE) 00:22:50 .
POPSAT HIP 1 29 Sep 00:14:28 00:18:10 29° 95° (E) 00:21:51 437.405
NANOSAT C BR1 29 Sep 00:29:56 00:33:54 39° 98° (E) 00:37:51 145.865
UNISAT 6 29 Sep 00:34:58 00:38:49 31° 294° (WNW) 00:42:44 437.425
AUBIESAT-1 29 Sep 00:36:16 00:40:05 45° 254° (WSW) 00:43:40 437.475
SWISSCUBE 29 Sep 00:42:18 00:43:14 11° 51° (NE) 00:44:09 437.505
DX 1 29 Sep 00:44:52 00:49:10 57° 259° (WSW) 00:53:31 434.975-435.025
AO-85 29 Sep 00:45:36 00:48:29 15° 341° (NNW) 00:51:13 145.980
BEESAT 3 29 Sep 00:49:24 00:52:24 21° 116° (ESE) 00:55:26 437.485
BEESAT 29 Sep 00:54:07 00:55:59 12° 52° (NE) 00:57:50 436.000
QB50P2 29 Sep 00:54:11 00:58:26 79° 103° (ESE) 01:02:40 145.880/145.840
50 SAT 29 Sep 00:55:40 00:58:45 25° 265° (W) 01:01:52 437.505
POLYITAN 1 29 Sep 00:56:23 01:00:38 79° 104° (ESE) 01:04:51 437.675
VELOX 1 29 Sep 00:56:57 01:00:54 31° 264° (W) 01:04:52 145.980
CUBEBUG 1 29 Sep 00:59:02 01:02:38 24° 267° (W) 01:06:14 437.445
ESTCUBE 1 29 Sep 01:03:27 01:06:18 16° 271° (W) 01:09:09 437.505/2401.250
Cosmos 2491 29 Sep 01:06:53 01:14:56 36° 64° (ENE) 01:22:52 435.465 / 435.565
ANTELSAT 29 Sep 01:11:11 01:13:54 16° 301° (WNW) 01:16:39 437.575/2403.000
TISAT 1 29 Sep 01:15:05 01:19:11 59° 71° (ENE) 01:23:19 437.305
M-CUBED/EXP-1 PRIME 29 Sep 01:16:08 01:18:39 16° 261° (W) 01:21:05 437.505
JAS-2 29 Sep 01:19:24 01:27:21 83° 105° (ESE) 01:34:59 435.910
ISS 29 Sep 01:29:42 01:33:00 81° 197° (SSW) 01:36:17 145.825
BUGSAT 1 29 Sep 01:31:07 01:35:09 68° 103° (ESE) 01:39:09 437.445
TIGRISAT 29 Sep 01:32:26 01:33:57 12° 305° (NW) 01:35:28 435.000
DUCHIFAT 1 29 Sep 01:33:03 01:37:07 51° 289° (WNW) 01:41:11 145.980
SPROUT 29 Sep 01:35:17 01:38:39 22° 267° (W) 01:42:01 437.525
QB50P1 29 Sep 01:36:24 01:40:23 42° 291° (WNW) 01:44:22 145.935-145.965
RS-15 29 Sep 01:39:09 01:50:29 40° 8° (N) 02:01:56 29.354- 29.394
BEESAT 2 29 Sep 01:46:12 01:49:53 39° 121° (ESE) 01:53:37 435.950
POPSAT HIP 1 29 Sep 01:50:12 01:53:58 32° 293° (WNW) 01:57:44 437.405
UKube-1 29 Sep 01:52:03 01:54:58 17° 269° (W) 01:57:54 .
Gurwin Techsat 1B 29 Sep 01:56:26 01:59:33 15° 87° (E) 02:02:39 435.225
ITUPSAT 1 29 Sep 02:03:08 02:07:36 41° 66° (ENE) 02:12:06 437.325
NANOSAT C BR1 29 Sep 02:06:02 02:09:28 25° 296° (WNW) 02:12:54 145.865
MOZHAYETS 4 29 Sep 02:11:31 02:13:02 12° 54° (NE) 02:14:33
YUBILEINY 29 Sep 02:12:59 02:20:06 29° 80° (E) 02:27:12 435.215
SWISSCUBE 29 Sep 02:15:23 02:20:03 59° 70° (ENE) 02:24:46 437.505
BEESAT 3 29 Sep 02:25:56 02:29:46 51° 315° (NW) 02:33:39 437.485
BEESAT 29 Sep 02:28:11 02:32:55 70° 72° (ENE) 02:37:41 436.000
Oscar 19 29 Sep 02:28:23 02:33:27 52° 100° (E) 02:38:27 437.125/150
AO-85 29 Sep 02:28:59 02:30:47 12° 6° (N) 02:32:33 145.980
KKS-1 29 Sep 02:29:19 02:30:40 11° 53° (NE) 02:32:02 437.445
QB50P2 29 Sep 02:31:24 02:33:41 14° 302° (WNW) 02:35:58 145.880/145.840
Cosmos 2504 29 Sep 02:31:48 02:33:14 11° 71° (ENE) 02:34:40 435.465 / 435.565
POLYITAN 1 29 Sep 02:33:36 02:35:53 14° 302° (WNW) 02:38:09 437.675
TISAT 1 29 Sep 02:52:34 02:55:12 16° 270° (W) 02:57:52 437.305
STARS 29 Sep 03:00:00 03:01:19 11° 54° (NE) 03:02:37 437.465
Cosmos 2491 29 Sep 03:03:40 03:12:23 65° 267° (W) 03:21:02 435.465 / 435.565
JAS-2 29 Sep 03:05:06 03:11:35 30° 305° (NW) 03:17:57 435.910
ISS 29 Sep 03:06:39 03:09:07 20° 219° (SW) 03:11:37 145.825
BUGSAT 1 29 Sep 03:07:45 03:10:04 15° 301° (WNW) 03:12:22 437.445
BEESAT 2 29 Sep 03:24:11 03:27:46 32° 321° (NW) 03:31:25 435.950
ITAMSAT 1 29 Sep 03:24:16 03:28:35 26° 93° (E) 03:32:54 435.822/435.867
PCSat 29 Sep 03:26:34 03:28:16 11° 102° (ESE) 03:29:58 145.827
CUBESAT XI-V 29 Sep 03:34:06 03:35:44 12° 53° (NE) 03:37:23 437.345
Gurwin Techsat 1B 29 Sep 03:34:52 03:40:14 87° 286° (WNW) 03:45:34 435.225
ITUPSAT 1 29 Sep 03:41:27 03:45:34 28° 265° (W) 03:49:43 437.325
MOZHAYETS 4 29 Sep 03:44:49 03:49:22 70° 73° (ENE) 03:53:58
RS-15 29 Sep 03:53:29 04:05:49 65° 39° (NE) 04:18:00 29.354- 29.394
SWISSCUBE 29 Sep 03:54:45 03:58:14 20° 269° (W) 04:01:45 437.505
KKS-1 29 Sep 04:02:01 04:06:27 71° 73° (ENE) 04:10:54 437.445
BEESAT 3 29 Sep 04:06:05 04:08:19 14° 337° (NNW) 04:10:33 437.485
YUBILEINY 29 Sep 04:07:18 04:16:06 75° 282° (WNW) 04:24:54 435.215
BEESAT 29 Sep 04:08:07 04:11:12 17° 271° (W) 04:14:18 436.000
Oscar 19 29 Sep 04:08:13 04:12:30 27° 299° (WNW) 04:16:45 437.125/150
AO-85 29 Sep 04:09:15 04:12:49 24° 31° (NNE) 04:16:11 145.980
Cosmos 2504 29 Sep 04:17:49 04:24:58 58° 93° (E) 04:31:58 435.465 / 435.565
AIST 2 29 Sep 04:17:53 04:21:53 54° 124° (SE) 04:25:57 435.215
AO-7 29 Sep 04:29:41 04:37:38 46° 100° (E) 04:45:31 29.400- 29.500
STARS 29 Sep 04:32:31 04:36:53 72° 74° (ENE) 04:41:16 437.465
DANDE 29 Sep 04:50:07 04:55:24 18° 48° (NE) 05:00:41 436.750
CUSAT 1 29 Sep 04:50:57 04:57:33 28° 57° (ENE) 05:03:26 437.405
Cosmos 2491 29 Sep 05:02:56 05:07:22 15° 290° (WNW) 05:11:47 435.465 / 435.565
ITAMSAT 1 29 Sep 05:03:16 05:08:21 53° 292° (WNW) 05:13:25 435.822/435.867
PCSat 29 Sep 05:05:16 05:10:38 67° 121° (ESE) 05:16:03 145.827
BEESAT 2 29 Sep 05:05:20 05:06:47 12° 344° (NNW) 05:08:14 435.950
CUBESAT XI-V 29 Sep 05:07:35 05:12:15 69° 73° (ENE) 05:16:58 437.345
HORYU 2 29 Sep 05:10:22 05:12:32 13° 88° (E) 05:14:42 437.375
Gurwin Techsat 1B 29 Sep 05:16:08 05:19:28 17° 306° (NW) 05:22:47 435.225
MOZHAYETS 4 29 Sep 05:24:16 05:27:03 16° 272° (W) 05:29:52
AIST 1 29 Sep 05:29:08 05:33:24 52° 95° (E) 05:37:40
KKS-1 29 Sep 05:40:57 05:43:30 15° 271° (W) 05:46:05 437.445
BRITE-PL 29 Sep 05:44:03 05:47:26 19° 87° (E) 05:50:39 437.365/2234.400
AO-85 29 Sep 05:49:28 05:53:44 71° 234° (SW) 05:57:41 145.980
AIST 2 29 Sep 05:57:04 06:00:38 27° 324° (NW) 06:04:15 435.215
RS-15 29 Sep 06:06:30 06:18:18 55° 246° (WSW) 06:29:53 29.354- 29.394
YUBILEINY 29 Sep 06:08:23 06:14:38 21° 307° (NW) 06:20:55 435.215
STARS 29 Sep 06:11:22 06:13:46 14° 271° (W) 06:16:09 437.465
Cosmos 2504 29 Sep 06:12:23 06:18:47 32° 295° (WNW) 06:25:06 435.465 / 435.565
AO-7 29 Sep 06:22:36 06:30:32 52° 301° (WNW) 06:38:26 29.400- 29.500
NOAA 18 29 Sep 06:24:25 06:27:28 15° 87° (E) 06:30:31 137.9125
DANDE 29 Sep 06:31:53 06:40:07 57° 71° (ENE) 06:48:00 436.750
CUSAT 1 29 Sep 06:32:38 06:40:35 81° 261° (W) 06:47:15 437.405
STRAND 1 29 Sep 06:40:07 06:44:47 37° 65° (ENE) 06:49:28 437.568
HORYU 2 29 Sep 06:45:11 06:49:40 80° 286° (WNW) 06:54:07 437.375
ITAMSAT 1 29 Sep 06:45:36 06:46:43 11° 312° (NW) 06:47:51 435.822/435.867
CUBESAT XI-V 29 Sep 06:47:05 06:50:08 17° 271° (W) 06:53:12 437.345
PCSat 29 Sep 06:49:43 06:54:29 30° 322° (NW) 06:59:17 145.827
NOAA 15 29 Sep 06:51:08 06:56:02 36° 96° (E) 07:00:52 137.62
LilacSat-2 29 Sep 06:55:49 06:59:15 30° 96° (E) 07:02:41 437.200
GOMX 1 29 Sep 07:04:28 07:08:44 43° 98° (E) 07:12:46 467.674
AIST 1 29 Sep 07:08:09 07:11:20 19° 294° (WNW) 07:14:31
CUTE-I 29 Sep 07:11:27 07:16:36 44° 99° (E) 07:21:42 437.470
Cubesat XI-IV 29 Sep 07:11:44 07:16:52 44° 99° (E) 07:21:57 437.490
DOVE 4 29 Sep 07:19:37 07:23:13 27° 94° (E) 07:26:44 437.250
BRITE-PL 29 Sep 07:21:36 07:26:28 60° 289° (WNW) 07:30:55 437.365/2234.400
BEESAT 3 29 Sep 07:24:36 07:26:59 15° 25° (NNE) 07:29:22 437.485
Cosmos 2499 29 Sep 07:29:22 07:32:31 13° 73° (ENE) 07:35:39 435.465 / 435.565
O/OREOS (USA 219) 29 Sep 07:32:38 07:37:02 49° 110° (ESE) 07:41:29 437.305
PRISM 29 Sep 07:36:30 07:38:38 14° 57° (ENE) 07:40:46 437.425
AIST 2 29 Sep 07:39:05 07:40:29 11° 348° (NNW) 07:41:53 435.215
HO-68 29 Sep 08:00:22 08:06:02 24° 90° (E) 08:11:38 435.675
NOAA 18 29 Sep 08:03:25 08:08:56 88° 108° (ESE) 08:14:25 137.9125
DANDE 29 Sep 08:15:02 08:22:44 42° 272° (W) 08:30:05 436.750
SEEDS 29 Sep 08:15:35 08:18:15 16° 89° (E) 08:20:52 437.485
CUTE 1.7 + AOD 2 29 Sep 08:16:05 08:19:28 22° 92° (E) 08:22:49 437.475
CUSAT 1 29 Sep 08:16:10 08:21:15 19° 284° (WNW) 08:25:53 437.405
AO-7 29 Sep 08:16:38 08:21:29 17° 325° (NW) 08:26:22 29.400- 29.500
CANX-2 29 Sep 08:17:27 08:21:04 26° 93° (E) 08:24:40 2200.000
STRAND 1 29 Sep 08:19:19 08:23:59 35° 264° (W) 08:28:41 437.568
CINEMA 3 29 Sep 08:21:43 08:25:29 32° 96° (E) 08:29:18 145.822/145.860
BEESAT 2 29 Sep 08:22:36 08:25:42 21° 32° (NNE) 08:28:48 435.950
RS-15 29 Sep 08:22:43 08:27:38 13° 270° (W) 08:32:32 29.354- 29.394
HORYU 2 29 Sep 08:23:37 08:25:30 13° 305° (NW) 08:27:22 437.375
GONETS M04 29 Sep 08:30:14 08:38:32 48° 87° (E) 08:46:51
LilacSat-2 29 Sep 08:30:15 08:33:29 26° 294° (WNW) 08:36:43 437.200
NOAA 15 29 Sep 08:30:56 08:35:51 39° 296° (WNW) 08:40:43 137.62
AAUSAT CUBESAT 2 29 Sep 08:34:39 08:36:49 14° 88° (E) 08:38:59 437.432
PCSat 29 Sep 08:36:59 08:39:42 14° 347° (NNW) 08:42:25 145.827
GOMX 1 29 Sep 08:43:02 08:46:36 24° 298° (WNW) 08:50:01 467.674
CUTE-I 29 Sep 08:51:48 08:56:31 33° 297° (WNW) 09:01:15 437.470
Cubesat XI-IV 29 Sep 08:52:05 08:56:49 33° 297° (WNW) 09:01:33 437.490
DOVE 4 29 Sep 08:57:12 09:01:01 33° 293° (WNW) 09:04:44 437.250
BEESAT 3 29 Sep 09:01:32 09:05:28 56° 46° (NE) 09:09:24 437.485
ANTELSAT 29 Sep 09:02:00 09:04:23 15° 58° (ENE) 09:06:45 437.575/2403.000
BRITE-PL 29 Sep 09:02:54 09:03:50 11° 310° (NW) 09:04:45 437.365/2234.400
PRISM 29 Sep 09:09:10 09:13:21 82° 256° (WSW) 09:17:34 437.425
O/OREOS (USA 219) 29 Sep 09:12:49 09:16:42 26° 311° (NW) 09:20:36 437.305
Cosmos 2499 29 Sep 09:17:10 09:24:12 71° 95° (E) 09:31:16 435.465 / 435.565
COMPASS 1 29 Sep 09:18:57 09:23:02 46° 98° (E) 09:27:05 437.405
FUNcube-1 29 Sep 09:19:16 09:22:04 17° 90° (E) 09:24:53 145.935
AIST 2 29 Sep 09:19:26 09:20:48 11° 12° (NNE) 09:22:11 435.215
CUBEBUG 2 29 Sep 09:19:54 09:23:54 37° 97° (E) 09:27:58 437.445
TIGRISAT 29 Sep 09:21:12 09:24:20 20° 62° (ENE) 09:27:29 435.000
UWE-3 29 Sep 09:35:04 09:39:04 36° 97° (E) 09:43:09 435.000/436.395/437.385
DELFI C3 29 Sep 09:43:26 09:44:51 12° 87° (E) 09:46:17 145.870
NOAA 18 29 Sep 09:45:13 09:48:56 19° 306° (NW) 09:52:37 137.9125
HO-68 29 Sep 09:47:20 09:54:30 79° 291° (WNW) 10:01:39 435.675
SEEDS 29 Sep 09:50:07 09:54:21 62° 287° (WNW) 09:58:33 437.485
CUTE 1.7 + AOD 2 29 Sep 09:51:24 09:55:30 44° 290° (WNW) 09:59:36 437.475
CANX-2 29 Sep 09:53:01 09:57:02 38° 292° (WNW) 10:01:01 2200.000
JAS-2 29 Sep 09:54:00 09:58:19 17° 44° (NE) 10:02:50 435.910
Oscar 11 29 Sep 09:56:37 10:00:42 38° 97° (E) 10:04:46 145.826/435.025
CINEMA 3 29 Sep 09:59:00 10:02:36 29° 294° (WNW) 10:06:15 145.822/145.860
BEESAT 2 29 Sep 09:59:58 10:04:01 81° 232° (SW) 10:08:01 435.950
UNISAT 6 29 Sep 10:01:06 10:05:12 49° 70° (ENE) 10:09:20 437.425
ZACube-1 29 Sep 10:01:10 10:05:19 43° 98° (E) 10:09:32 437.345
AAUSAT CUBESAT 2 29 Sep 10:08:35 10:12:47 70° 287° (WNW) 10:16:57 437.432
HUMSAT D 29 Sep 10:10:41 10:12:36 13° 87° (E) 10:14:32 437.325/437.525
QB50P2 29 Sep 10:17:29 10:19:40 14° 58° (ENE) 10:21:51 145.880/145.840
POLYITAN 1 29 Sep 10:19:42 10:21:52 14° 58° (ENE) 10:24:02 437.675
PCSat 29 Sep 10:22:41 10:25:31 14° 14° (NNE) 10:28:21 145.827
GONETS M04 29 Sep 10:26:55 10:35:23 49° 290° (WNW) 10:43:57
ANTELSAT 29 Sep 10:36:17 10:40:33 77° 257° (WSW) 10:44:50 437.575/2403.000
BEESAT 3 29 Sep 10:39:52 10:42:48 20° 245° (WSW) 10:45:42 437.485
BUGSAT 1 29 Sep 10:52:46 10:54:02 11° 56° (NE) 10:55:18 437.445
DUCHIFAT 1 29 Sep 10:54:03 10:57:25 24° 64° (ENE) 11:00:48 145.980
FUNcube-1 29 Sep 10:54:25 10:58:41 61° 287° (WNW) 11:03:02 145.935
COMPASS 1 29 Sep 10:55:04 10:58:20 22° 297° (WNW) 11:01:35 437.405
TIGRISAT 29 Sep 10:56:36 11:00:44 50° 260° (W) 11:04:54 435.000
CUBEBUG 2 29 Sep 10:56:50 11:00:25 27° 295° (WNW) 11:04:03 437.445
AIST 2 29 Sep 10:57:03 11:00:39 27° 35° (NE) 11:04:15 435.215
QB50P1 29 Sep 10:57:31 11:01:09 29° 66° (ENE) 11:04:48 145.935-145.965
POPSAT HIP 1 29 Sep 11:10:53 11:14:46 38° 68° (ENE) 11:18:40 437.405
UWE-3 29 Sep 11:11:47 11:15:26 28° 295° (WNW) 11:19:09 435.000/436.395/437.385
Cosmos 2499 29 Sep 11:12:16 11:18:03 26° 298° (WNW) 11:23:54 435.465 / 435.565
ESTCUBE 1 29 Sep 11:15:21 11:16:14 10° 85° (E) 11:17:07 437.505/2401.250
DELFI C3 29 Sep 11:16:11 11:20:14 77° 286° (WNW) 11:24:14 145.870
NANOSAT C BR1 29 Sep 11:25:56 11:29:59 51° 71° (ENE) 11:34:04 145.865
Oscar 11 29 Sep 11:33:01 11:36:43 27° 295° (WNW) 11:40:23 145.826/435.025
JAS-2 29 Sep 11:35:11 11:41:47 60° 67° (ENE) 11:49:12 435.910
HO-68 29 Sep 11:36:08 11:41:14 22° 312° (NW) 11:46:19 435.675
ZACube-1 29 Sep 11:37:56 11:41:25 24° 296° (WNW) 11:44:55 437.345
UNISAT 6 29 Sep 11:39:06 11:42:13 20° 269° (W) 11:45:21 437.425
BEESAT 2 29 Sep 11:40:10 11:41:08 11° 251° (WSW) 11:42:05 435.950
HUMSAT D 29 Sep 11:44:31 11:48:46 78° 286° (WNW) 11:53:03 437.325/437.525
AAUSAT CUBESAT 2 29 Sep 11:47:04 11:47:28 10° 305° (NW) 11:47:53 437.432
QB50P2 29 Sep 11:50:41 11:54:54 81° 256° (WSW) 11:59:08 145.880/145.840
POLYITAN 1 29 Sep 11:52:54 11:57:06 81° 258° (WSW) 12:01:19 437.675
AO-7 29 Sep 11:58:46 11:59:43 10° 20° (NNE) 12:00:40 29.400- 29.500
AISAT 29 Sep 11:59:41 12:02:15 15° 89° (E) 12:04:48 437.250
PCSat 29 Sep 12:05:46 12:10:39 32° 39° (NE) 12:15:31 145.827
PHONESAT 2.4 29 Sep 12:10:26 12:11:57 13° 172° (S) 12:13:28 2401.200-2431.200
Oscar 19 29 Sep 12:12:05 12:15:53 21° 58° (ENE) 12:19:42 437.125/150
YUBILEINY 29 Sep 12:16:09 12:22:06 19° 51° (NE) 12:28:00 435.215
50 SAT 29 Sep 12:18:58 12:21:37 19° 92° (E) 12:24:15 437.505
BUGSAT 1 29 Sep 12:24:39 12:28:45 84° 75° (ENE) 12:32:50 437.445
DUCHIFAT 1 29 Sep 12:29:00 12:32:56 39° 262° (W) 12:36:53 145.980
DX 1 29 Sep 12:29:26 12:32:25 18° 91° (E) 12:35:23 434.975-435.025
GONETS M04 29 Sep 12:31:01 12:35:02 13° 318° (NW) 12:39:04
QB50P1 29 Sep 12:33:05 12:36:53 32° 264° (W) 12:40:41 145.935-145.965
AIST 2 29 Sep 12:35:18 12:39:26 57° 236° (SW) 12:43:33 435.215
VELOX 1 29 Sep 12:42:05 12:46:10 35° 97° (E) 12:50:12 145.980
CUBEBUG 1 29 Sep 12:42:09 12:46:21 46° 99° (E) 12:50:31 437.445
POPSAT HIP 1 29 Sep 12:47:13 12:50:41 24° 266° (W) 12:54:09 437.405
ESTCUBE 1 29 Sep 12:49:13 12:53:48 81° 103° (ESE) 12:58:20 437.505/2401.250
M-CUBED/EXP-1 PRIME 29 Sep 12:50:04 12:52:03 15° 98° (E) 12:54:01 437.505
DELFI C3 29 Sep 12:53:41 12:54:20 10° 304° (NW) 12:55:00 145.870
NANOSAT C BR1 29 Sep 13:03:05 13:06:01 18° 269° (W) 13:08:59 145.865
ITAMSAT 1 29 Sep 13:11:06 13:12:54 12° 49° (NE) 13:14:43 435.822/435.867
SPROUT 29 Sep 13:15:33 13:19:40 45° 99° (E) 13:23:45 437.525
Gurwin Techsat 1B 29 Sep 13:21:09 13:26:00 38° 64° (ENE) 13:30:53 435.225
JAS-2 29 Sep 13:21:18 13:27:16 33° 270° (W) 13:33:54 435.910
HUMSAT D 29 Sep 13:22:19 13:23:40 11° 304° (NW) 13:25:03 437.325/437.525
UKube-1 29 Sep 13:32:51 13:37:07 57° 101° (ESE) 13:41:21 .
AISAT 29 Sep 13:34:49 13:39:13 69° 287° (WNW) 13:43:34 437.250
AO-7 29 Sep 13:43:07 13:49:42 27° 46° (NE) 13:56:17 29.400- 29.500
AUBIESAT-1 29 Sep 13:44:40 13:47:56 53° 107° (ESE) 13:51:11 437.475
PHONESAT 2.4 29 Sep 13:45:53 13:47:21 13° 189° (S) 13:48:49 2401.200-2431.200
PCSat 29 Sep 13:49:03 13:54:25 61° 240° (WSW) 13:59:44 145.827
Oscar 19 29 Sep 13:49:31 13:54:42 72° 256° (WSW) 13:59:56 437.125/150
50 SAT 29 Sep 13:51:50 13:55:17 39° 290° (WNW) 13:58:43 437.505
BUGSAT 1 29 Sep 14:03:37 14:04:42 11° 273° (W) 14:05:47 437.445
Cosmos 2504 29 Sep 14:04:04 14:10:18 28° 63° (ENE) 14:16:49 435.465 / 435.565
DX 1 29 Sep 14:04:41 14:08:58 56° 289° (WNW) 14:13:13 434.975-435.025
YUBILEINY 29 Sep 14:12:04 14:20:47 71° 76° (ENE) 14:29:28 435.215
SWISSCUBE 29 Sep 14:13:44 14:14:50 11° 85° (E) 14:15:56 437.505
Cosmos 2491 29 Sep 14:14:30 14:22:03 34° 82° (E) 14:29:39 435.465 / 435.565
VELOX 1 29 Sep 14:18:43 14:22:32 29° 296° (WNW) 14:26:20 145.980
CUBEBUG 1 29 Sep 14:18:58 14:22:24 23° 298° (WNW) 14:25:47 437.445
M-CUBED/EXP-1 PRIME 29 Sep 14:23:44 14:26:50 39° 296° (WNW) 14:29:54 437.505
BEESAT 29 Sep 14:25:37 14:27:45 13° 87° (E) 14:29:54 436.000
ESTCUBE 1 29 Sep 14:27:20 14:30:01 16° 303° (WNW) 14:32:42 437.505/2401.250
SO-50 29 Sep 14:28:15 14:30:57 15° 110° (ESE) 14:33:38 436.795
TISAT 1 29 Sep 14:29:59 14:34:06 56° 101° (E) 14:38:13 437.305
ITAMSAT 1 29 Sep 14:46:17 14:51:21 59° 69° (ENE) 14:56:28 435.822/435.867
SPROUT 29 Sep 14:52:02 14:55:22 22° 297° (WNW) 14:58:40 437.525
Gurwin Techsat 1B 29 Sep 15:01:04 15:05:58 37° 263° (W) 15:10:55 435.225
UKube-1 29 Sep 15:09:42 15:12:48 19° 300° (WNW) 15:15:52 .
AISAT 29 Sep 15:13:51 15:14:52 11° 307° (NW) 15:15:52 437.250
AUBIESAT-1 29 Sep 15:20:21 15:22:05 14° 305° (NW) 15:23:48 437.475
AIST 1 29 Sep 15:32:02 15:35:23 21° 67° (ENE) 15:38:41
AO-7 29 Sep 15:33:11 15:41:31 86° 69° (ENE) 15:49:52 29.400- 29.500
Oscar 19 29 Sep 15:33:33 15:34:58 11° 276° (W) 15:36:23 437.125/150
ITUPSAT 1 29 Sep 15:36:30 15:41:14 53° 101° (E) 15:45:56 437.325
MOZHAYETS 4 29 Sep 15:37:11 15:39:10 12° 86° (E) 15:41:08
SWISSCUBE 29 Sep 15:48:37 15:53:27 77° 104° (ESE) 15:58:16 437.505
Cosmos 2504 29 Sep 15:56:59 16:04:20 71° 265° (W) 16:12:10 435.465 / 435.565
O/OREOS (USA 219) 29 Sep 15:59:10 16:03:17 30° 51° (NE) 16:07:22 437.305
BEESAT 29 Sep 16:01:25 16:06:15 89° 112° (ESE) 16:11:04 436.000
SO-50 29 Sep 16:05:56 16:10:47 86° 127° (SE) 16:15:34 436.795
TISAT 1 29 Sep 16:06:31 16:09:23 18° 300° (WNW) 16:12:15 437.305
Cosmos 2491 29 Sep 16:09:35 16:18:19 66° 285° (WNW) 16:27:11 435.465 / 435.565
YUBILEINY 29 Sep 16:09:40 16:16:54 31° 279° (W) 16:24:08 435.215
HORYU 2 29 Sep 16:12:00 16:15:24 22° 61° (ENE) 16:18:49 437.375
ITAMSAT 1 29 Sep 16:27:12 16:31:14 22° 269° (W) 16:35:16 435.822/435.867
NOAA 15 29 Sep 16:38:23 16:41:40 17° 53° (NE) 16:44:58 137.62
GOMX 1 29 Sep 16:40:48 16:43:35 15° 56° (NE) 16:46:17 467.674
BRITE-PL 29 Sep 16:57:28 17:02:40 39° 66° (ENE) 17:07:43 437.365/2234.400
CUTE-I 29 Sep 16:59:48 17:03:34 20° 56° (NE) 17:07:22 437.470
Cubesat XI-IV 29 Sep 17:00:13 17:04:00 20° 56° (NE) 17:07:47 437.490
CUBESAT XI-V 29 Sep 17:01:30 17:03:37 13° 86° (E) 17:05:44 437.345
AIST 1 29 Sep 17:09:07 17:13:13 43° 267° (W) 17:17:15
MOZHAYETS 4 29 Sep 17:12:20 17:17:01 89° 293° (WNW) 17:21:40
ITUPSAT 1 29 Sep 17:14:56 17:18:46 24° 299° (WNW) 17:22:36 437.325
KKS-1 29 Sep 17:24:56 17:29:23 78° 104° (ESE) 17:33:48 437.445
SWISSCUBE 29 Sep 17:27:30 17:30:41 18° 303° (WNW) 17:33:53 437.505
AO-7 29 Sep 17:28:48 17:35:17 25° 269° (W) 17:41:50 29.400- 29.500
O/OREOS (USA 219) 29 Sep 17:38:28 17:42:48 41° 252° (WSW) 17:47:05 437.305
BEESAT 29 Sep 17:40:35 17:43:23 16° 305° (NW) 17:46:10 436.000
LilacSat-2 29 Sep 17:42:00 17:45:15 28° 67° (ENE) 17:48:32 437.200
HORYU 2 29 Sep 17:47:23 17:51:40 50° 260° (W) 17:55:59 437.375
SO-50 29 Sep 17:47:52 17:51:50 25° 330° (NNW) 17:55:44 436.795
Cosmos 2504 29 Sep 17:52:36 17:56:25 15° 286° (WNW) 18:00:20 435.465 / 435.565
STARS 29 Sep 17:53:39 17:58:03 76° 104° (ESE) 18:02:25 437.465
NOAA 18 29 Sep 17:54:13 17:59:21 43° 65° (ENE) 18:04:30 137.9125
CUSAT 1 29 Sep 17:58:19 18:02:56 19° 76° (ENE) 18:07:59 437.405
Cosmos 2491 29 Sep 18:11:29 18:17:14 19° 310° (NW) 18:23:03 435.465 / 435.565
NOAA 15 29 Sep 18:15:23 18:20:42 85° 72° (ENE) 18:26:04 137.62
GOMX 1 29 Sep 18:15:39 18:20:58 79° 74° (ENE) 18:26:01 467.674
RS-15 29 Sep 18:27:17 18:34:44 20° 95° (E) 18:42:22 29.354- 29.394
DOVE 4 29 Sep 18:28:27 18:33:10 49° 70° (ENE) 18:37:38 437.250
HO-68 29 Sep 18:33:51 18:39:55 31° 55° (NE) 18:46:01 435.675
GONETS M04 29 Sep 18:34:41 18:42:18 31° 61° (ENE) 18:49:49
BRITE-PL 29 Sep 18:35:49 18:41:07 40° 264° (W) 18:46:17 437.365/2234.400
CUBESAT XI-V 29 Sep 18:36:56 18:41:41 88° 287° (WNW) 18:46:21 437.345
CUTE-I 29 Sep 18:37:44 18:43:03 78° 256° (WSW) 18:48:25 437.470
Cubesat XI-IV 29 Sep 18:38:11 18:43:30 78° 256° (WSW) 18:48:52 437.490
MOZHAYETS 4 29 Sep 18:51:00 18:53:31 15° 304° (WNW) 18:56:02
Cosmos 2499 29 Sep 19:01:47 19:08:29 34° 66° (ENE) 19:15:37 435.465 / 435.565
KKS-1 29 Sep 19:02:46 19:05:23 16° 303° (WNW) 19:08:02 437.445
SEEDS 29 Sep 19:11:23 19:14:29 20° 62° (ENE) 19:17:34 437.485
CUTE 1.7 + AOD 2 29 Sep 19:12:47 19:16:22 27° 65° (ENE) 19:20:00 437.475
CANX-2 29 Sep 19:14:13 19:17:58 31° 67° (ENE) 19:21:46 2200.000
LilacSat-2 29 Sep 19:16:19 19:19:33 27° 265° (W) 19:22:48 437.200
CINEMA 3 29 Sep 19:27:19 19:31:34 50° 71° (ENE) 19:35:41 145.822/145.860
AAUSAT CUBESAT 2 29 Sep 19:28:55 19:31:40 17° 60° (ENE) 19:34:26 437.432
STARS 29 Sep 19:31:16 19:33:52 16° 303° (WNW) 19:36:27 437.465
SO-50 29 Sep 19:31:36 19:33:55 13° 354° (N) 19:36:13 436.795
NOAA 18 29 Sep 19:35:12 19:40:07 34° 264° (W) 19:45:04 137.9125
CUSAT 1 29 Sep 19:36:53 19:43:36 80° 98° (E) 19:51:32 437.405
DANDE 29 Sep 19:44:37 19:49:55 41° 88° (E) 19:56:39 436.750
ISS 29 Sep 19:50:09 19:51:43 13° 137° (SE) 19:53:18 145.825
GOMX 1 29 Sep 19:56:09 19:59:33 17° 271° (W) 20:02:51 467.674
NOAA 15 29 Sep 19:58:00 20:01:11 16° 272° (W) 20:04:24 137.62
DOVE 4 29 Sep 20:07:08 20:11:05 24° 267° (W) 20:14:51 437.250
AO-85 29 Sep 20:09:02 20:11:53 15° 111° (ESE) 20:14:38 145.980
COMPASS 1 29 Sep 20:13:29 20:17:33 53° 72° (ENE) 20:21:41 437.405
CUBESAT XI-V 29 Sep 20:15:50 20:18:22 15° 304° (NW) 20:20:53 437.345
FUNcube-1 29 Sep 20:19:03 20:22:12 21° 63° (ENE) 20:25:22 145.935
HO-68 29 Sep 20:20:01 20:27:10 70° 256° (WSW) 20:34:21 435.675
CUTE-I 29 Sep 20:21:51 20:24:00 12° 275° (W) 20:26:10 437.470
CUBEBUG 2 29 Sep 20:22:10 20:26:13 51° 71° (ENE) 20:30:15 437.445
Cubesat XI-IV 29 Sep 20:22:18 20:24:28 12° 275° (W) 20:26:40 437.490
STRAND 1 29 Sep 20:24:37 20:29:43 57° 101° (E) 20:34:47 437.568
GONETS M04 29 Sep 20:31:15 20:40:04 76° 265° (W) 20:48:46
DELFI C3 29 Sep 20:33:19 20:35:23 14° 59° (ENE) 20:37:29 145.870
UWE-3 29 Sep 20:36:14 20:40:13 48° 71° (ENE) 20:44:14 435.000/436.395/437.385
